Location: Cudham
(51.3000°N, 0.0667°E)
Time: 17:20:29
(UTC+00:00)

USA 229 DEB - Pass Details

Date: 19 April 2026
Orbit: 844 x 1364 km, 63.4° (Epoch: 10 January)

Event Time Altitude Azimuth Distance (km) Brightness Sun altitude
Rises 23:32:27 0° 313° (NW) 3,894 7.4 -27.0°
Reaches altitude 10° 23:35:00 10° 316° (NW) 3,007 6.7 -27.0°
Maximum altitude 23:42:18 70° 41° (NE) 1,298 4.1 -27.1°
Enters shadow 23:46:32 31° 117° (ESE) 2,094 4.9 -27.2°
